Regional Weather Roundup
Issued by NWS

Home | Current Version | Previous Version | Text Only | Print | Product List | Glossary On
Versions: 1 2 3 4 5 6 7 8 9 10 11 12 13 14 15 16 17 18 19 20 21 22 23 24 25 26 27 28 29 30 31 32 33 34 35 36 37 38 39 40 41 42 43 44 45 46 47 48 49 50
000
ASUS44 KJAN 032010
RWRMS

MISSISSIPPI HOURLY WEATHER ROUNDUP
NATIONAL WEATHER SERVICE JACKSON MS
300 PM CDT SUN MAY 03 2015

NOTE: "FAIR: INDICATES FEW OR NO CLOUDS BELOW 12,000 FEET WITH NO
SIGNIFICANT WEATHER AND/OR OBSTRUCTIONS TO VISIBILITY.

MSZ001>002-007>008-010>013-018>021-025>028-034>036-032100-
NORTHWEST MISSISSIPPI

CITY           SKY/WX    TMP DP  RH WIND       PRES   REMARKS
CLARKSDALE     PTSUNNY   82  50  32 SW5       30.06F
CLEVELAND      FAIR      83  53  35 S7G16     30.05F
GREENWOOD      SUNNY     80  52  37 S8        30.07F
GREENVILLE     MOSUNNY   82  55  39 S5G17     30.05F
OLIVE BRANCH   PTSUNNY   79  48  34 S12       30.08F
OXFORD         LGT RAIN  81  45  28 SW7       30.10F
TUNICA         CLEAR     82  48  30 SW7       30.06F
$$

MSZ003>006-009-014>017-022>024-029>033-037>039-032100-
NORTHEAST MISSISSIPPI

CITY           SKY/WX    TMP DP  RH WIND       PRES   REMARKS
COLUMBUS AFB   MOSUNNY   84  50  30 SE6       30.09F
CORINTH        FAIR      79  46  31 S9        30.09F
GOLDN TRIANGLE MOSUNNY   81  52  36 S10       30.10F
STARKVILLE     FAIR      79  52  38 SW5       30.09F
TUPELO         MOSUNNY   82  48  30 S12       30.09F
$$

MSZ040-058-032100-
CENTRAL MISSISSIPPI

CITY           SKY/WX    TMP DP  RH WIND       PRES   REMARKS
JACKSON INTL   MOSUNNY   82  53  36 S9        30.08F
JACKSON HAWKNS PTSUNNY   81  54  39 S6        30.09F
MERIDIAN KEY   MOSUNNY   81  46  29 S8        30.10F
MERIDIAN NAS   SUNNY     81  45  28 SE5       30.11F
RAYMOND        CLOUDY    82  77  83 S8G16     30.08F HX  91
VICKSBURG      SUNNY     83  56  39 S6        30.07F
$$

MSZ059>079-032100-
SOUTH MISSISSIPPI

CITY           SKY/WX    TMP DP  RH WIND       PRES   REMARKS
BROOKHAVEN     FAIR      82  52  34 E3        30.10F
HATTIESBURG    MOSUNNY   82  47  29 SE8       30.10F
MCCOMB         PTSUNNY   80  50  34 S8        30.09F
NATCHEZ        PTSUNNY   79  57  47 W6        30.09S
PINE BELT      PTSUNNY   82  45  26 S6        30.12S
$$

MSZ080>082-032100-
COASTAL MISSISSIPPI

CITY           SKY/WX    TMP DP  RH WIND       PRES   REMARKS
BAY ST LOUIS   SUNNY     77  48  36 MISG      30.12F
BILOXI         SUNNY     78  56  45 S9G16     30.12F
PASCAGOULA     SUNNY     77  56  48 S10       30.13F
GULFPORT       SUNNY     78  55  44 SE13G21   30.12F
$$



USA.gov is the U.S. government's official web portal to all federal, state and local government web resources and services.